User: anonymous
Location: Goheenville
(40.9070°N, 79.3720°W)
Time: 05:04:46
(UTC-04:00)
Language:

NOAA 11 - Orbit

View from above orbital plane
View from above orbital plane
View from above satellite
View from above satellite

Ground track
Ground track

The orbit data is extracted from the following two-line orbital elements,

1 19531U 88089A   14210.29595487 -.00000049  00000-0 -32098-5 0  8956
2 19531 098.6792 288.0344 0011655 172.8465 187.2877 14.15089467333691
Epoch (UTC): 29 July 2014 07:06:10
Eccentricity: 0.0011655
inclination: 98.6792°
perigee height: 833 km
apogee height: 850 km
right ascension of ascending node: 288.0344°
argument of perigee: 172.8465°
revolutions per day: 14.15089467
mean anomaly at epoch: 187.2877°
orbit number at epoch: 33369

The dashed part of the orbit path shows where the satellite is in the earth's shadow,  

DLR